www.pogodaiklimat.ru

Погода и климат >> Архив погоды >> Венгрия >> Тата


ПОГОДА в Тате

  • Прогноз погоды в Тате
  • Монитор погоды в Тате

АРХИВ ПОГОДЫ в Тате

Время (UTC), дата Ветер
(напр.,м/с)
 
Видим.   Явления Облачность Т
(С)
Тd
(С)
f
(%)
Тe
(С)
Тes
(С)
Комфортность P
(гПа)
Po
(гПа)
Тmin
(С)
Tmax
(С)
R
(мм)
R24
(мм)
S
(см)
04 12.06 ЮВ 2 н/о н/о +22.2 +17.3 74 +27 +27 душно 1012.5 998.1
05 12.06 ЮВ 3
{7}
н/о н/о +22.5 +17.6 74 +28 +28 душно 1013.7 999.3
06 12.06 ЮВ 2 н/о н/о +24.2 +18.4 70 +29 +29 душно 1014.0 999.6 +21.7
07 12.06 Ю 2 н/о н/о +26.1 +18.3 62 +31 +31 очень
душно
1014.0 999.7
08 12.06 ЮВ 2
{7}
н/о н/о +27.4 +18.7 59 +32 +32 очень
душно
1013.8 999.6
09 12.06 ЮВ 4
{8}
н/о н/о +27.9 +17.7 54 +32 +32 душно 1013.5 999.3
10 12.06 ЮВ 4
{8}
н/о н/о +28.6 +18.4 54 +33 +33 очень
душно
1013.4 999.3
11 12.06 ЮВ 4
{10}
н/о н/о +29.2 +18.3 52 +34 +34 очень
душно
1013.2 999.1
12 12.06 ЮВ 5
{9}
н/о н/о +29.9 +18.4 50 +35 +35 очень
душно
1012.5 998.4
13 12.06 ЮВ 4
{11}
н/о н/о +30.4 +17.1 45 +34 +34 очень
душно
1012.2 998.2
14 12.06 ЮВ 4
{9}
н/о н/о +30.6 +17.7 46 +35 +35 очень
душно
1012.0 998.0
15 12.06 Ю 4
{8}
н/о н/о +31.0 +18.4 47 +36 +36 очень
душно
1011.7 997.7
16 12.06 Ю 3
{8}
н/о н/о +30.6 +18.0 47 +35 +35 очень
душно
1011.5 997.5
17 12.06 ЮВ 3
{7}
н/о н/о +29.7 +17.2 47 +34 +34 очень
душно
1011.2 997.1
18 12.06 ЮВ 2 н/о н/о +28.4 +17.6 52 +33 +33 очень
душно
1011.2 997.1 +31.2
19 12.06 В 1 н/о н/о +25.9 +18.6 64 +31 +31 очень
душно
1011.5 997.3
20 12.06 В 1 н/о н/о +25.6 +17.5 61 +30 +30 душно 1011.7 997.4
21 12.06 ЮВ 2 н/о н/о +25.4 +17.1 60 +29 +29 душно 1012.4 998.1
22 12.06 ЮВ 1 н/о н/о +24.7 +16.7 61 +28 +28 душно 1012.7 998.4
23 12.06 В 1 н/о н/о +23.7 +16.7 65 +27 +27 жарко 1012.6 998.2
00 13.06 ЮВ 2 н/о н/о +24.5 +16.7 62 +28 +28 душно 1012.3 998.0
01 13.06 ЮВ 2 н/о н/о +24.1 +16.6 63 +28 +28 душно 1012.3 998.0
02 13.06 штиль 0 н/о н/о +21.0 +16.6 76 +24 +24 комфорт 1012.4 997.9
03 13.06 штиль 0 н/о н/о +19.3 +17.1 87 +21 +21 комфорт 1012.9 998.3
04 13.06 штиль 0 н/о н/о +20.1 +17.7 86 +23 +23 комфорт 1012.7 998.2
05 13.06 ЮВ 2 н/о н/о +25.0 +17.5 63 +29 +29 душно 1012.6 998.3
06 13.06 ЮВ 2
{7}
н/о н/о +25.7 +17.9 62 +30 +30 душно 1013.0 998.7 +18.7
07 13.06 ЮВ 2
{7}
н/о н/о +26.9 +19.0 62 +32 +32 очень
душно
1013.0 998.8
08 13.06 ЮВ 3
{7}
н/о н/о +28.0 +19.2 59 +34 +34 очень
душно
1013.1 998.9
09 13.06 В 3
{7}
н/о н/о +29.3 +19.0 54 +35 +35 очень
душно
1013.1 999.0
10 13.06 ЮВ 3
{8}
н/о н/о +30.3 +19.0 51 +36 +36 очень
душно
1013.0 998.9
11 13.06 ЮВ 3
{8}
н/о н/о +31.0 +19.0 49 +36 +36 очень
душно
1012.8 998.8
12 13.06 ЮВ 3
{8}
н/о н/о +31.9 +19.2 47 +37 +37 очень
душно
1012.3 998.3
13 13.06 ЮВ 3
{8}
н/о н/о +32.3 +19.9 48 +38 +38 очень
душно
1012.2 998.2
14 13.06 Ю 4
{8}
н/о н/о +32.3 +19.6 47 +38 +38 очень
душно
1011.9 997.9
15 13.06 Ю 3
{8}
н/о н/о +32.5 +19.4 46 +38 +38 очень
душно
1011.7 997.8
16 13.06 Ю 3
{8}
н/о н/о +32.4 +20.6 50 +39 +39 очень
душно
1011.5 997.6
17 13.06 Ю 3
{7}
н/о н/о +31.4 +19.7 50 +37 +37 очень
душно
1011.6 997.6
18 13.06 Ю 2 н/о н/о +30.4 +19.7 53 +37 +37 очень
душно
1011.6 997.6 +33.1
19 13.06 Ю 2 н/о н/о +27.0 +19.1 62 +32 +32 очень
душно
1012.2 998.0
20 13.06 штиль 0 н/о н/о +23.7 +19.4 77 +29 +29 душно 1013.4 999.0
21 13.06 штиль 0 н/о н/о +23.1 +19.1 78 +29 +29 очень
душно
1013.8 999.4
22 13.06 штиль 0 н/о н/о +21.7 +19.3 86 +27 +27 душно 1014.4 999.9
23 13.06 ЮВ 2 н/о н/о +23.0 +18.1 74 +29 +29 очень
душно
1014.1 999.7
00 14.06 Ю 1 н/о н/о +20.9 +17.7 82 +26 +26 душно 1014.0 999.5
01 14.06 ЮВ 1 н/о н/о +18.4 +17.2 93 +20 +20 1014.2 999.6
02 14.06 штиль 0 н/о н/о +17.1 +16.5 96 +17 +17 1014.5 999.8
03 14.06 ЮЗ 1 н/о н/о +16.9 +16.4 97 +18 +18 1015.5 1000.8
04 14.06 штиль 0 н/о н/о +18.5 +17.5 94 +19 +19 1015.9 1001.2
05 14.06 В 1 н/о н/о +23.0 +18.1 74 +29 +29 очень
душно
1015.7 1001.3
06 14.06 Ю 1 н/о н/о +25.1 +17.8 64 +29 +29 душно 1016.1 1001.8 +16.4
07 14.06 ЮЗ 2 н/о н/о +26.1 +17.5 59 +30 +30 душно 1016.7 1002.4
08 14.06 З 2 н/о н/о +26.8 +18.1 59 +31 +31 душно 1017.3 1003.0
09 14.06 ЮЗ 2 н/о н/о +28.4 +19.1 57 +34 +34 очень
душно
1017.4 1003.2
10 14.06 В 1 н/о н/о +29.6 +18.4 51 +34 +34 очень
душно
1017.6 1003.4
11 14.06 ЮВ 1 н/о н/о +30.2 +17.3 46 +34 +34 очень
душно
1017.4 1003.3
12 14.06 Ю 1 н/о н/о +31.3 +15.7 39 +34 +34 душно 1017.0 1002.9
13 14.06 В 1 н/о н/о +31.8 +13.1 32 +33 +33 жарко 1016.6 1002.6
14 14.06 ЮВ 1 н/о н/о +32.2 +12.4 30 +33 +33 жарко 1016.5 1002.5
15 14.06 ЮВ 1 н/о н/о +32.4 +11.0 27 +32 +32 жарко 1016.1 1002.1
16 14.06 В 1 н/о н/о +32.2 +11.4 28 +32 +32 жарко 1015.8 1001.8
17 14.06 В 1 н/о н/о +31.4 +11.2 29 +32 +32 жарко 1015.7 1001.7
18 14.06 штиль 0 н/о н/о +27.9 +17.4 53 +32 +32 душно 1015.9 1001.7 +32.9
19 14.06 штиль 0 н/о н/о +21.8 +17.4 76 +26 +26 душно 1016.3 1001.8
20 14.06 штиль 0 н/о н/о +19.6 +17.4 87 +22 +22 комфорт 1017.0 1002.4
21 14.06 штиль 0 н/о н/о +19.0 +17.3 90 +20 +20 1016.9 1002.2
22 14.06 штиль 0 н/о н/о +18.2 +16.5 90 +19 +19 1016.9 1002.2
23 14.06 штиль 0 н/о н/о +17.6 +16.3 92 +18 +18 1016.2 1001.5
00 15.06 штиль 0 н/о н/о +16.7 +15.4 92 +17 +17 1016.1 1001.3
01 15.06 В 1 н/о н/о +16.2 +15.4 95 +17 +17 1016.2 1001.4
02 15.06 штиль 0 н/о н/о +15.9 +14.6 92 +16 +16 1015.7 1000.9
03 15.06 штиль 0 н/о н/о +15.0 +14.0 94 +15 +15 1015.8 1001.0
04 15.06 штиль 0 н/о н/о +17.5 +15.1 86 +17 +17 1015.8 1001.1
05 15.06 Ю 1 н/о н/о +22.9 +16.9 69 +28 +28 душно 1015.2 1000.8
06 15.06 В 1 н/о н/о +25.9 +17.0 58 +30 +30 душно 1014.9 1000.6 +14.9
07 15.06 ЮВ 2 н/о н/о +28.2 +15.8 47 +31 +31 душно 1014.6 1000.4
08 15.06 ЮВ 2 н/о н/о +28.9 +16.8 48 +33 +33 очень
душно
1014.8 1000.6
09 15.06 Ю 4
{7}
н/о н/о +30.4 +14.9 39 +33 +33 душно 1014.7 1000.6
10 15.06 Ю 3
{7}
н/о н/о +31.1 +15.5 39 +34 +34 душно 1014.5 1000.5
11 15.06 Ю 3
{7}
н/о н/о +30.7 +15.9 41 +34 +34 очень
душно
1014.1 1000.0
12 15.06 Ю 4
{8}
н/о н/о +30.7 +16.3 42 +34 +34 очень
душно
1013.9 999.8
13 15.06 Ю 3 н/о н/о +33.0 +17.2 39 +37 +37 очень
душно
1013.1 999.2
14 15.06 Ю 2
{7}
н/о н/о +32.2 +18.0 43 +37 +37 очень
душно
1012.8 998.8
15 15.06 Ю 3
{7}
н/о н/о +32.8 +18.6 43 +38 +38 очень
душно
1012.4 998.5
16 15.06 Ю 3
{7}
н/о н/о +30.8 +17.8 46 +35 +35 очень
душно
1012.1 998.1
17 15.06 ЮВ 2 н/о н/о +29.4 +16.6 46 +33 +33 душно 1011.7 997.6
18 15.06 ЮВ 2 н/о н/о +28.3 +17.5 52 +32 +32 душно 1011.3 997.2 +33.2
19 15.06 ЮВ 1 н/о н/о +26.5 +17.0 56 +30 +30 душно 1011.3 997.1
20 15.06 Ю 2 н/о н/о +22.4 +17.8 75 +27 +27 душно 1012.3 997.9
21 15.06 штиль 0 н/о н/о +21.3 +17.5 79 +25 +25 комфорт 1012.6 998.1
22 15.06 штиль 0 н/о н/о +19.6 +17.6 88 +22 +22 комфорт 1012.5 997.9
23 15.06 штиль 0 н/о н/о +18.7 +17.7 94 +20 +20 1012.7 998.1
00 16.06 штиль 0 н/о н/о +18.1 +17.1 94 +18 +18 1012.9 998.3
01 16.06 штиль 0 н/о н/о +18.7 +17.7 94 +20 +20 1012.6 998.0
02 16.06 штиль 0 н/о н/о +18.2 +16.7 91 +19 +19 1012.2 997.6
03 16.06 штиль 0 н/о н/о +17.6 +17.0 96 +18 +18 1012.3 997.6
04 16.06 штиль 0 н/о н/о +19.4 +17.4 88 +21 +21 комфорт 1012.6 998.0
05 16.06 З 1 н/о н/о +22.2 +18.6 80 +27 +27 душно 1012.6 998.2
06 16.06 СЗ 1 н/о н/о +24.5 +18.9 71 +29 +29 душно 1012.8 998.5 +17.6
07 16.06 З 2 н/о н/о +26.7 +19.1 63 +32 +32 очень
душно
1013.4 999.2
08 16.06 З 2 н/о н/о +22.9 +19.1 79 +29 +29 очень
душно
1014.4 1000.0
09 16.06 СЗ 1 н/о н/о +23.3 +20.3 83 +31 +31 очень
душно
1014.7 1000.3
10 16.06 В 2 н/о н/о +25.8 +20.4 72 +32 +32 очень
душно
1014.8 1000.5
11 16.06 СЗ 4
{7}
н/о н/о +28.5 +21.0 64 +36 +36 очень
душно
1014.5 1000.3
12 16.06 СЗ 5
{9}
н/о н/о +28.6 +20.9 63 +36 +36 очень
душно
1014.1 999.9 0.1
13 16.06 СЗ 4
{7}
н/о н/о +27.7 +19.5 61 +33 +33 очень
душно
1014.2 1000.0
14 16.06 СЗ 4
{7}
н/о н/о +27.3 +19.6 63 +33 +33 очень
душно
1013.6 999.4
15 16.06 СЗ 5
{9}
н/о н/о +26.0 +17.9 61 +30 +30 душно 1014.0 999.7
16 16.06 С 1
{8}
н/о н/о +25.4 +18.3 65 +30 +30 душно 1014.9 1000.6
17 16.06 СЗ 4
{8}
н/о н/о +25.1 +17.6 63 +29 +29 душно 1014.8 1000.5
18 16.06 СЗ 3 н/о н/о +24.5 +17.7 66 +29 +29 душно 1014.8 1000.4 +28.7 0.1
19 16.06 СЗ 3 н/о н/о +23.9 +16.7 64 +27 +27 жарко 1014.8 1000.4
20 16.06 Ю 2 н/о н/о +23.1 +17.3 70 +28 +28 душно 1016.7 1002.2
21 16.06 СЗ 3
{8}
н/о н/о +22.0 +17.8 77 +27 +27 душно 1016.5 1002.0
22 16.06 В 2
{10}
н/о н/о +18.8 +17.5 92 +21 +21 комфорт 1018.2 1003.5
23 16.06 Ю 2 н/о н/о +18.7 +18.0 96 +20 +20 1017.2 1002.5
00 17.06 ЮЗ 1 н/о н/о +18.4 +18.1 98 +20 +20 1017.5 1002.8 15
01 17.06 СВ 1 н/о н/о +18.4 +17.9 97 +20 +20 1017.5 1002.8
02 17.06 ЮЗ 1 н/о н/о +18.5 +18.0 97 +20 +20 1017.9 1003.2
03 17.06 штиль 0 н/о н/о +17.7 +17.4 98 +18 +18 1017.9 1003.2
04 17.06 штиль 0 н/о н/о +18.3 +18.0 98 +19 +19 1017.6 1002.9
05 17.06 СВ 1 н/о н/о +19.2 +18.5 96 +22 +22 комфорт 1018.1 1003.4
06 17.06 З 1 н/о н/о +21.4 +19.1 87 +26 +26 душно 1017.9 1003.3 +17.6 15
07 17.06 С 2 н/о н/о +22.3 +19.1 82 +28 +28 душно 1018.2 1003.7
08 17.06 СЗ 3 н/о н/о +23.5 +19.2 77 +28 +28 душно 1018.1 1003.6
09 17.06 С 2 н/о н/о +24.9 +17.9 65 +29 +29 душно 1018.2 1003.8
10 17.06 СВ 3 н/о н/о +25.6 +17.0 59 +29 +29 душно 1018.2 1003.8
11 17.06 СВ 2 н/о н/о +26.3 +16.8 56 +30 +30 душно 1017.8 1003.5
12 17.06 СВ 1 н/о н/о +26.8 +16.4 53 +30 +30 душно 1017.7 1003.4
13 17.06 С 2 н/о н/о +25.4 +17.6 62 +30 +30 душно 1017.6 1003.2
14 17.06 СВ 4
{13}
н/о н/о +22.0 +17.6 76 +27 +27 душно 1017.8 1003.3
15 17.06 С 1 н/о н/о +23.2 +18.7 76 +29 +29 душно 1017.2 1002.7
16 17.06 СВ 3 н/о н/о +23.2 +17.9 72 +29 +29 душно 1017.1 1002.6
17 17.06 СВ 1 н/о н/о +23.9 +18.8 73 +29 +29 душно 1016.9 1002.5
18 17.06 С 2 н/о н/о +22.9 +17.6 72 +28 +28 душно 1017.0 1002.5 +27.2
19 17.06 штиль 0 н/о н/о +21.2 +17.8 81 +25 +25 комфорт 1017.5 1002.9
20 17.06 штиль 0 н/о н/о +19.9 +18.0 89 +23 +23 комфорт 1017.7 1003.1
21 17.06 штиль 0 н/о н/о +18.9 +18.1 95 +20 +20 1018.0 1003.3
22 17.06 С 1 н/о н/о +19.0 +17.0 88 +22 +22 комфорт 1017.8 1003.1
23 17.06 штиль 0 н/о н/о +18.3 +17.1 93 +19 +19 1017.7 1003.0
00 18.06 штиль 0 н/о н/о +17.7 +17.2 97 +18 +18 1017.4 1002.7
01 18.06 штиль 0 н/о н/о +17.1 +16.8 98 +17 +17 1017.2 1002.4
02 18.06 штиль 0 н/о н/о +16.7 +16.4 98 +17 +17 1017.2 1002.4
03 18.06 штиль 0 н/о н/о +16.1 +15.8 98 +16 +16 1017.5 1002.7
04 18.06 штиль 0 н/о н/о +17.2 +17.0 99 +17 +17 1017.6 1002.8
05 18.06 штиль 0 н/о н/о +19.5 +17.6 89 +22 +22 комфорт 1017.5 1002.9
06 18.06 С 1 н/о н/о +21.5 +16.9 75 +25 +25 комфорт 1017.6 1003.1 +16.1
07 18.06 С 1 н/о н/о +23.2 +17.9 72 +29 +29 душно 1017.6 1003.1
08 18.06 СЗ 1 н/о н/о +23.9 +16.9 65 +28 +28 душно 1017.6 1003.2
09 18.06 СЗ 1 н/о н/о +25.2 +16.9 60 +29 +29 душно 1017.5 1003.1
10 18.06 С 1 н/о н/о +25.5 +17.7 62 +30 +30 душно 1017.1 1002.8
11 18.06 СВ 1 н/о н/о +26.2 +15.6 52 +29 +29 жарко 1016.8 1002.5
12 18.06 В 1 н/о н/о +27.2 +16.8 53 +31 +31 душно 1016.1 1001.9
13 18.06 З 1 н/о н/о +28.6 +17.5 51 +33 +33 очень
душно
1015.6 1001.4
14 18.06 З 2 н/о н/о +28.4 +17.0 50 +32 +32 душно 1015.1 1000.9
15 18.06 З 2 н/о н/о +28.4 +17.6 52 +33 +33 очень
душно
1014.6 1000.4
16 18.06 СЗ 1 н/о н/о +28.4 +17.3 51 +32 +32 душно 1014.3 1000.1
17 18.06 В 1 н/о н/о +27.2 +16.5 52 +31 +31 душно 1014.1 999.9
18 18.06 штиль 0 н/о н/о +25.1 +17.6 63 +29 +29 душно 1014.5 1000.2 +29.3
19 18.06 штиль 0 н/о н/о +22.3 +19.1 82 +28 +28 душно 1014.9 1000.4
20 18.06 штиль 0 н/о н/о +20.4 +19.2 93 +24 +24 комфорт 1015.2 1000.6
21 18.06 ЮВ 1 н/о н/о +22.0 +17.8 77 +27 +27 душно 1015.1 1000.6
22 18.06 ЮЗ 1 н/о н/о +19.4 +18.6 95 +23 +23 комфорт 1015.2 1000.6
23 18.06 Ю 1 н/о н/о +18.7 +18.0 96 +21 +21 комфорт 1015.1 1000.5
00 19.06 штиль 0 н/о н/о +18.1 +17.6 97 +18 +18 1014.9 1000.2
01 19.06 СЗ 1 н/о н/о +17.7 +17.2 97 +19 +19 1014.4 999.7
02 19.06 штиль 0 н/о н/о +17.3 +17.0 98 +17 +17 1014.1 999.4
03 19.06 штиль 0 н/о н/о +17.3 +17.0 98 +17 +17 1014.1 999.4

 

Местоположение метеостанции Тата (Венгрия): широта 47.65 долгота 18.32 высота над уровнем моря 129 м.

В архиве по умолчанию представлена погода в Тате за последнюю неделю. Архивные данные за месяц целиком и за предыдущие месяцы, начиная с января 2011 года, Вы можете получить, выбрав интересующий диапазон дат из раскрывающегося списка и нажав кнопку "Ввод!".


*Определитесь, кто Вы:
робот инопланетянин человек

Внимание! Время в таблицах - всемирное. Для получения местного времени необходимо прибавить поправку, которая равна 1 ч.

Смотрите также архив погоды в соседних городах и на ближайших метеорологических станциях:

Погода в Тате (Венгрия) (24 км)
Погода в Гурбаново (Словакия) (26 км)
Погода в Пер аэропорту (Венгрия) (38 км)
Погода в Дьере (Венгрия) (49 км)
Погода в Агарде (Венгрия) (57 км)
Погода в Будапеште (Венгрия) (69 км)
Погода на Базе ВВС Папа (Венгрия) (70 км)
Погода в Моховце (Словакия) (71 км)
Погода в Дудинце (Словакия) (71 км)
Погода в Нитре (Словакия) (71 км)

Пояснения к столбцам:

Ветер - указаны скорость ветра в м/с - средняя за 10 мин, порывы в срок и между сроками (в фигурных скобках) и направление, откуда дует ветер: С - северный, СВ - северо-восточный, В - восточный, ЮВ - юго-восточный, Ю - южный, ЮЗ - юго-западный, З - западный, СЗ - северо-западный.
Видимость - горизонтальная дальность видимости в метрах или километрах. При видимости от 1 до 10 км при отсутствии осадков обычно наблюдается дымка, при ухудшении видимости до 1 км и менее - туман. В сухую погоду видимость может ухудшаться дымом, пылью или мглою.
Явления - указаны атмосферные явления, наблюдавшиеся в срок или в последний час перед сроком; фигурными скобками обозначены явления, наблюдавшиеся между сроками (за 1-3 часа до срока); квадратными скобками обозначены град или гололедные отложения с указанием их диаметра в мм.
Облачность - указаны через наклонную черту общая и нижняя облачность в баллах и высота нижней границы облаков в метрах; квадратными скобками обозначены формы облаков: Ci - перистые, Cs - перисто-слоистые, Cc - перисто-кучевые, Ac - высококучевые, As - высокослоистые, Sc - слоисто-кучевые, Ns - слоисто-дождевые, Cu - кучевые, Cb - кучево-дождевые. Подробнее классификацию облаков см. в Атласе облаков (PDF).
T - Температура воздуха - температура, измеренная на высоте 2 м над землей.
Td - Температура точки росы - температура, при понижении до которой содержащийся в воздухе водяной пар достигнет насыщения.
f - Относительная влажность воздуха - влажноcть воздуха, измеренная на высоте 2 м над землей.
Te - Эффективная температура - температура, которую ощущает одетый по сезону человек в тени. Характеристика душности погоды. При расчете учитывается влияние влажности воздуха и скорости ветра на теплоощущения человека.
Tes - Эффективная температура на солнце - температура, которую ощущает человек, с поправкой на солнечный нагрев. Характеристика знойности погоды. Зависит от высоты солнца над горизонтом, облачности и скорости ветра. Ночью, в пасмурную погоду, а также при ветре 12 м/с и более поправка равна нулю.
P - Атмосферное давление - приведенное к уровню моря атмосферное давление.
Po - Атмосферное давление - измеренное на уровне метеостанции атмосферное давление.
Tmin - Минимальная температура - минимум температуры воздуха на высоте 2 м над землей.
Tmax - Максимальная температура - максимум температуры воздуха на высоте 2 м над землей.
R - Количество осадков - Количество выпавших осадков за период времени, мм. При наведении курсора мыши на число - период времени, за который выпало указанное количество осадков.
R24 - Количество осадков - Количество выпавших осадков за 24 часа, мм.
S - Снежный покров - Высота снежного покрова, см. При наведении курсора мыши на число - состояние снежного покрова и степень покрытия местности в баллах.